Location: Gro�bocka
(50.8204°N, 11.9702°E)
Time: 02:01:14
(UTC+00:00)

Meteor 2-10 Rocket - Pass Details

Date: 29 October 2020
Orbit: 733 x 885 km, 81.2° (Epoch: 23 November)

Event Time Altitude Azimuth Distance (km) Brightness Sun altitude
Rises 17:49:17 0° 191° (SSW) 3,286 6.9 -19.1°
Reaches altitude 10° 17:51:41 10° 192° (SSW) 2,338 6.1 -19.4°
Maximum altitude 17:56:57 87° 282° (WNW) 771 3.4 -20.3°
Drops below altitude 10° 18:02:04 10° 12° (NNE) 2,275 5.9 -21.1°
Sets 18:04:23 0° 13° (NNE) 3,192 6.6 -21.4°
